Total_Precipitation_Accumulation
0.37 0.41 0.61 0.50 0.43 0.43 0.45 0.46 0.50 0.51 0.48 0.48 0.51 0.48 0.46 0.45 0.47 0.50 0.56 0.66 0.74 0.83 0.93 1.04 1.09 0.99 0.93 0.83 0.73 0.66 0.62 0.65 0.71 0.77 0.84 0.86 0.92 1.08 1.30 1.30 1.32 0.89 0.89
0.19 0.28 0.49 0.38 0.31 0.32 0.35 0.39 0.45 0.46 0.47 0.45 0.44 0.43 0.48 0.50 0.48 0.50 0.62 0.72 0.74 0.84 0.96 0.99 0.89 0.78 0.68 0.60 0.55 0.54 0.59 0.72 0.81 0.92 0.98 0.85 0.98 1.15 1.23 1.18 1.29 0.84 0.78
0.15 0.15 0.26 0.31 0.26 0.30 0.32 0.34 0.39 0.40 0.39 0.39 0.41 0.43 0.49 0.49 0.46 0.50 0.59 0.66 0.76 0.86 0.82 0.77 0.62 0.50 0.45 0.42 0.45 0.52 0.62 0.77 1.01 1.21 1.37 0.91 0.70 1.06 1.12 1.04 0.86 0.62 0.65
0.10 0.10 0.12 0.23 0.23 0.22 0.27 0.31 0.34 0.33 0.34 0.37 0.39 0.39 0.42 0.45 0.47 0.50 0.57 0.63 0.71 0.69 0.59 0.57 0.49 0.38 0.33 0.34 0.41 0.50 0.61 0.75 1.13 1.51 1.62 0.80 0.42 0.65 0.77 0.66 0.57 0.55 0.54
0.09 0.10 0.13 0.18 0.17 0.17 0.20 0.26 0.29 0.28 0.30 0.33 0.34 0.36 0.39 0.41 0.49 0.55 0.61 0.63 0.60 0.53 0.48 0.49 0.43 0.36 0.30 0.32 0.39 0.51 0.59 0.77 1.10 1.34 1.12 0.88 0.76 0.63 0.55 0.52 0.57 0.56 0.53
0.11 0.11 0.14 0.17 0.16 0.15 0.17 0.21 0.24 0.27 0.30 0.30 0.29 0.35 0.38 0.46 0.48 0.50 0.52 0.52 0.50 0.44 0.41 0.38 0.35 0.33 0.31 0.33 0.41 0.50 0.65 0.88 1.01 0.75 0.67 0.78 0.72 0.62 0.54 0.60 0.60 0.54 0.50
0.12 0.14 0.16 0.18 0.16 0.16 0.18 0.19 0.22 0.24 0.28 0.29 0.28 0.31 0.35 0.42 0.42 0.42 0.41 0.41 0.39 0.34 0.34 0.37 0.37 0.32 0.34 0.37 0.45 0.55 0.72 0.95 0.91 0.62 0.66 0.88 0.72 0.51 0.55 0.65 0.77 0.66 0.49
0.18 0.20 0.24 0.26 0.24 0.21 0.19 0.19 0.21 0.24 0.26 0.29 0.31 0.30 0.32 0.36 0.39 0.38 0.37 0.39 0.36 0.33 0.33 0.35 0.37 0.35 0.37 0.42 0.50 0.58 0.64 0.68 0.64 0.61 0.62 0.74 0.53 0.44 0.50 0.65 0.82 0.81 0.73
0.41 0.50 0.44 0.33 0.28 0.29 0.28 0.27 0.25 0.29 0.31 0.33 0.33 0.32 0.35 0.37 0.39 0.38 0.40 0.40 0.39 0.37 0.36 0.34 0.33 0.36 0.40 0.45 0.50 0.55 0.60 0.67 0.72 0.78 0.65 0.68 0.46 0.47 0.55 0.62 0.75 0.85 0.86
0.63 0.64 0.60 0.48 0.43 0.35 0.30 0.31 0.33 0.37 0.39 0.37 0.34 0.35 0.37 0.37 0.40 0.43 0.43 0.51 0.51 0.53 0.55 0.52 0.45 0.43 0.48 0.55 0.55 0.61 0.67 0.66 0.70 0.74 0.90 0.72 0.55 0.62 0.70 0.70 0.76 0.86 0.93
1.07 0.97 0.83 0.55 0.47 0.45 0.40 0.37 0.46 0.48 0.49 0.54 0.53 0.49 0.63 0.79 0.79 0.88 0.74 0.84 0.83 0.86 0.85 0.85 0.80 0.78 0.79 0.69 0.75 0.88 0.83 0.74 0.92 1.01 0.92 0.66 0.69 0.91 1.04 0.88 0.84 0.86 0.92
1.59 1.40 1.16 0.85 0.67 0.61 0.55 0.62 0.69 0.70 0.82 0.87 1.03 1.06 1.31 1.54 1.47 1.08 1.14 1.38 1.43 1.43 1.36 1.40 1.53 1.37 1.20 1.03 1.34 1.59 1.03 0.89 1.04 1.00 0.94 1.00 1.18 1.44 1.57 1.31 1.08 0.95 0.93
1.74 1.58 1.47 1.24 1.01 0.82 0.87 0.91 0.98 1.13 1.43 1.31 1.24 1.37 1.74 1.60 1.33 1.21 1.36 1.65 1.93 1.90 1.85 1.94 2.09 1.74 1.80 1.99 2.11 2.14 1.54 1.28 1.38 1.30 1.11 1.29 1.56 1.88 2.08 1.85 1.49 1.26 1.12
2.30 2.06 1.85 1.70 1.48 1.42 1.33 1.23 1.16 1.23 1.38 1.38 1.55 1.43 1.75 1.87 1.74 1.71 1.92 1.99 2.18 2.36 2.75 2.59 2.72 2.58 2.46 2.28 2.32 2.34 2.09 1.97 1.84 1.95 1.92 1.82 1.91 2.13 2.41 2.36 2.06 1.74 1.49
2.74 2.53 2.38 2.25 2.16 2.13 1.97 1.79 1.43 1.49 1.49 1.53 1.75 1.78 1.88 2.12 2.21 2.31 2.30 2.25 2.09 2.42 2.84 3.07 2.78 3.06 3.05 2.62 2.26 2.15 2.15 2.11 2.30 2.53 2.38 2.54 2.46 2.41 2.65 2.70 2.51 2.28 2.11
2.91 3.03 3.12 2.99 2.88 2.86 2.66 2.47 2.18 1.98 2.08 2.02 2.05 2.20 2.37 2.58 2.75 2.81 2.65 2.55 2.31 2.32 2.62 2.83 2.81 3.06 2.94 2.77 2.15 2.03 2.00 2.13 2.32 2.40 2.42 2.85 2.82 2.57 2.59 2.76 2.81 2.65 2.47
3.07 3.52 3.78 3.83 3.74 3.70 3.58 3.24 2.86 2.68 2.70 2.85 2.94 2.97 2.91 3.01 3.26 3.14 2.94 2.58 2.44 2.49 2.66 2.61 2.62 2.68 2.55 2.48 2.23 2.27 2.21 2.12 2.04 2.12 2.26 2.47 2.40 2.25 2.27 2.41 2.71 2.89 3.05
3.39 3.94 4.24 4.40 4.62 4.50 4.44 4.11 3.61 3.37 3.27 3.23 3.29 3.32 3.24 3.29 3.17 3.12 2.83 2.43 2.50 2.57 2.57 2.59 2.45 2.50 2.52 2.57 2.55 2.36 2.41 2.30 1.87 1.89 1.97 1.91 2.01 1.83 2.03 2.21 2.37 2.62 3.14
3.71 4.37 4.76 5.25 5.55 5.43 5.14 4.64 4.17 4.02 3.82 3.62 3.59 3.51 3.39 3.17 3.00 3.09 2.78 2.66 2.60 2.59 2.42 2.21 2.54 2.69 2.70 2.69 2.44 2.32 2.11 1.91 1.68 1.51 1.48 1.36 1.54 1.73 1.94 2.00 2.17 2.30 2.82
3.77 4.52 5.15 5.72 5.93 5.68 5.14 4.70 4.51 4.31 4.00 3.76 3.48 3.25 3.00 2.89 2.69 2.83 2.59 2.56 2.68 2.71 2.48 2.48 2.74 2.75 2.48 2.53 2.26 2.11 1.91 1.58 1.47 1.37 1.21 1.18 1.16 1.15 1.45 1.87 2.27 2.01 2.37
4.00 4.74 5.36 5.77 5.74 5.54 5.16 4.77 4.46 3.98 3.68 3.43 3.14 2.92 2.69 2.43 2.32 2.61 2.40 2.66 2.56 2.42 2.25 2.23 2.32 2.35 2.09 2.34 2.54 2.07 1.57 1.32 1.23 1.10 1.11 1.20 1.14 1.23 1.52 1.95 2.22 2.33 2.16
3.83 4.39 4.80 4.78 4.45 4.32 4.30 4.18 3.90 3.92 3.77 3.64 3.37 3.15 2.75 2.57 2.42 2.26 2.42 2.26 2.20 2.26 2.08 1.98 2.16 2.16 1.92 2.26 2.35 2.29 1.74 1.51 1.27 0.90 1.02 1.13 1.22 1.45 1.55 1.68 2.02 2.26 2.15
3.30 3.64 3.67 3.55 3.38 3.41 3.46 3.42 3.50 3.70 3.71 3.65 3.49 3.20 2.91 2.76 2.64 2.50 2.39 2.18 2.09 1.93 1.96 1.98 2.05 2.08 1.98 1.99 2.06 2.22 1.81 1.47 1.27 0.97 0.97 1.15 1.43 1.67 1.65 1.71 1.70 1.87 1.94
2.53 2.67 2.67 2.74 2.76 2.77 2.81 2.80 2.70 2.74 2.92 3.13 3.33 3.36 3.30 3.08 2.84 2.58 2.40 2.16 1.96 1.82 1.95 1.68 1.78 2.04 2.10 1.85 1.86 1.83 1.72 1.79 1.75 1.41 1.07 1.00 1.27 1.46 1.53 1.43 1.49 1.67 1.86
1.82 1.93 1.99 2.28 2.59 2.69 2.73 2.82 2.72 2.45 2.44 2.49 2.63 2.76 2.76 2.76 2.61 2.32 2.21 2.13 1.95 1.79 1.78 1.74 1.96 1.97 1.93 1.84 1.89 1.87 1.94 2.05 1.89 1.76 1.46 1.37 1.45 1.40 1.37 1.35 1.44 1.55 1.79
1.43 1.59 1.79 2.09 2.47 2.68 2.72 2.68 2.65 2.55 2.51 2.42 2.41 2.45 2.32 2.31 2.25 2.11 2.03 2.05 1.90 1.77 1.75 1.75 1.86 1.93 2.00 2.05 2.02 1.97 2.01 1.98 1.98 2.15 1.90 1.76 1.71 1.49 1.46 1.48 1.56 1.69 1.85